timestamp,surface_pressure_avg,surface_temp_avg,battery_voltage,lat,long
2021-09-26 00:09:01+00:00,267.733,14.1,12.73,47.84626,-54.09684
2021-09-26 00:19:01+00:00,268.0014,14.1,12.73,47.84626,-54.09684
2021-09-26 00:29:01+00:00,272.9331,14.1,12.73,47.84626,-54.09684
2021-09-26 00:39:01+00:00,283.0913,14.1,12.73,47.84626,-54.09684
2021-09-26 00:49:01+00:00,285.923,14.1,12.73,47.84626,-54.09684
2021-09-26 00:59:01+00:00,285.9415,14.1,12.73,47.84626,-54.09684
2021-09-26 01:09:01+00:00,291.6397,14.1,12.73,47.84626,-54.09684
2021-09-26 01:19:00+00:00,301.4014,14.1,12.73,47.84626,-54.09684
2021-09-26 01:29:00+00:00,305.4847,14.1,12.73,47.84626,-54.09684
2021-09-26 01:39:00+00:00,306.7563,14.1,12.73,47.84626,-54.09684
2021-09-26 01:49:00+00:00,312.953,14.1,12.73,47.84626,-54.09684
2021-09-26 01:59:00+00:00,317.4847,14.1,12.73,47.84626,-54.09684
2021-09-26 02:09:00+00:00,314.6981,14.1,12.73,47.84626,-54.09684
2021-09-26 02:19:01+00:00,313.8964,14.1,12.73,47.84626,-54.09684
2021-09-26 02:29:01+00:00,318.2463,14.1,12.73,47.84626,-54.09684
2021-09-26 02:39:01+00:00,319.0114,14.1,12.73,47.84626,-54.09684
2021-09-26 02:49:01+00:00,315.8547,14.1,12.73,47.84626,-54.09684
2021-09-26 02:59:01+00:00,314.9214,14.1,12.73,47.84626,-54.09684
2021-09-26 03:09:01+00:00,315.5913,14.1,12.73,47.84626,-54.09684
2021-09-26 03:19:01+00:00,313.2714,14.1,12.73,47.84626,-54.09684
2021-09-26 03:29:01+00:00,307.2264,14.1,12.73,47.84626,-54.09684
2021-09-26 03:39:01+00:00,307.0214,14.1,12.73,47.84626,-54.09684
2021-09-26 03:49:01+00:00,309.9997,14.1,12.73,47.84626,-54.09684
2021-09-26 03:59:01+00:00,308.643,14.1,12.73,47.84626,-54.09684
2021-09-26 04:09:01+00:00,302.5363,14.1,12.73,47.84626,-54.09684
2021-09-26 04:19:01+00:00,300.0847,14.1,12.65,47.84626,-54.09684
2021-09-26 04:29:01+00:00,297.9597,14.1,12.65,47.84626,-54.09684
2021-09-26 04:39:01+00:00,293.0963,14.1,12.65,47.84626,-54.09684
2021-09-26 04:49:01+00:00,288.6997,14.1,12.65,47.84626,-54.09684
2021-09-26 04:59:01+00:00,286.1381,14.1,12.65,47.84626,-54.09684
2021-09-26 05:09:01+00:00,281.6531,14.1,12.65,47.84626,-54.09684
2021-09-26 05:19:01+00:00,274.6731,14.1,12.65,47.84626,-54.09684
2021-09-26 05:29:01+00:00,267.9131,14.1,12.65,47.84626,-54.09684
2021-09-26 05:39:01+00:00,264.1931,14.1,12.65,47.84626,-54.09684
2021-09-26 05:49:01+00:00,257.6281,14.1,12.65,47.84626,-54.09684
2021-09-26 05:59:01+00:00,250.0931,14.1,12.65,47.84626,-54.09684
2021-09-26 06:09:01+00:00,243.8681,14.1,12.65,47.84626,-54.09684
2021-09-26 06:19:01+00:00,239.6548,14.1,12.65,47.84626,-54.09684
2021-09-26 06:29:01+00:00,230.9998,14.1,12.65,47.84626,-54.09684
2021-09-26 06:39:01+00:00,222.8748,14.1,12.65,47.84626,-54.09684
2021-09-26 06:49:01+00:00,218.0298,14.1,12.65,47.84626,-54.09684
2021-09-26 06:59:01+00:00,210.6165,14.1,12.65,47.84626,-54.09684
2021-09-26 07:09:01+00:00,202.6248,14.1,12.65,47.84626,-54.09684
2021-09-26 07:19:00+00:00,197.4148,14.1,12.65,47.84626,-54.09684
2021-09-26 07:29:00+00:00,192.8698,14.1,12.65,47.84626,-54.09684
2021-09-26 07:39:00+00:00,187.5315,14.1,12.65,47.84626,-54.09684
2021-09-26 07:49:00+00:00,185.1948,14.13,12.65,47.84626,-54.09684
2021-09-26 07:59:00+00:00,183.7965,14.15,12.65,47.84626,-54.09684
2021-09-26 08:09:00+00:00,182.2498,14.2,12.65,47.84626,-54.09684
2021-09-26 08:19:00+00:00,183.5064,14.2,12.65,47.84626,-54.09684
2021-09-26 08:29:00+00:00,183.8631,14.2,12.65,47.84626,-54.09684
2021-09-26 08:39:00+00:00,182.4548,14.2,12.65,47.84626,-54.09684
2021-09-26 08:49:00+00:00,187.1048,14.2,12.65,47.84626,-54.09684
2021-09-26 08:59:00+00:00,192.5798,14.2,12.65,47.84626,-54.09684
2021-09-26 09:09:00+00:00,192.9348,14.2,12.65,47.84626,-54.09684
2021-09-26 09:19:01+00:00,198.2914,14.2,12.65,47.84626,-54.09684
2021-09-26 09:29:01+00:00,207.8198,14.2,12.65,47.84626,-54.09684
2021-09-26 09:39:01+00:00,212.9481,14.2,12.65,47.84626,-54.09684
2021-09-26 09:49:01+00:00,217.6831,14.2,12.65,47.84626,-54.09684
2021-09-26 09:59:01+00:00,224.9231,14.2,12.65,47.84626,-54.09684
2021-09-26 10:09:01+00:00,231.1014,14.2,12.65,47.84626,-54.09684
2021-09-26 10:19:01+00:00,236.3464,14.2,12.65,47.84626,-54.09684
2021-09-26 10:29:01+00:00,238.5498,14.2,12.65,47.84626,-54.09684
2021-09-26 10:39:01+00:00,240.7415,14.2,12.65,47.84626,-54.09684
2021-09-26 10:49:01+00:00,245.7047,14.2,12.65,47.84626,-54.09684
2021-09-26 10:59:01+00:00,249.4448,14.2,12.65,47.84626,-54.09684
2021-09-26 11:09:01+00:00,249.4314,14.2,12.65,47.84626,-54.09684
2021-09-26 11:19:01+00:00,253.9897,14.2,12.65,47.84626,-54.09684
2021-09-26 11:29:01+00:00,260.0447,14.2,12.65,47.84626,-54.09684
2021-09-26 11:39:01+00:00,261.4181,14.2,12.65,47.84626,-54.09684
2021-09-26 11:49:01+00:00,262.5264,14.2,12.65,47.84626,-54.09684
2021-09-26 11:59:01+00:00,271.0614,14.2,12.65,47.84626,-54.09684
2021-09-26 12:09:01+00:00,274.938,14.2,12.65,47.84626,-54.09684
2021-09-26 12:19:01+00:00,273.1164,14.23,12.73,47.84626,-54.09684
2021-09-26 12:29:01+00:00,276.2114,14.24,12.73,47.84626,-54.09684
2021-09-26 12:39:01+00:00,287.8597,14.2,12.73,47.84626,-54.09684
2021-09-26 12:49:01+00:00,292.4697,14.2,12.73,47.84626,-54.09684
2021-09-26 12:59:01+00:00,293.2147,14.25,12.73,47.84626,-54.09684
2021-09-26 13:09:01+00:00,300.6097,14.25,12.73,47.84626,-54.09684
2021-09-26 13:19:01+00:00,312.4464,14.24,12.89,47.84626,-54.09684
2021-09-26 13:29:01+00:00,316.508,14.24,12.89,47.84626,-54.09684
2021-09-26 13:39:01+00:00,318.1863,14.26,12.89,47.84626,-54.09684
2021-09-26 13:49:01+00:00,325.1647,14.25,12.89,47.84626,-54.09684
2021-09-26 13:59:01+00:00,331.3196,14.23,12.89,47.84626,-54.09684
2021-09-26 14:09:01+00:00,331.1146,14.25,12.89,47.84626,-54.09684
2021-09-26 14:19:01+00:00,331.7729,14.27,13.05,47.84626,-54.09684
2021-09-26 14:29:01+00:00,338.1229,14.25,13.05,47.84626,-54.09684
2021-09-26 14:39:01+00:00,340.2996,14.26,13.05,47.84626,-54.09684
2021-09-26 14:49:01+00:00,338.3146,14.28,13.05,47.84626,-54.09684
2021-09-26 14:59:01+00:00,336.1913,14.28,13.05,47.84626,-54.09684
2021-09-26 15:09:01+00:00,337.5197,14.27,13.05,47.84626,-54.09684
2021-09-26 15:19:01+00:00,336.9497,14.26,13.21,47.84626,-54.09684
2021-09-26 15:29:01+00:00,331.5896,14.29,13.21,47.84626,-54.09684
2021-09-26 15:39:01+00:00,327.9046,14.3,13.21,47.84626,-54.09684
2021-09-26 15:49:01+00:00,329.088,14.29,13.21,47.84626,-54.09684
2021-09-26 15:59:01+00:00,330.8180000000001,14.29,13.21,47.84626,-54.09684
2021-09-26 16:09:01+00:00,326.5731,14.3,13.21,47.84626,-54.09684
2021-09-26 16:19:01+00:00,320.9847,14.3,13.29,47.84626,-54.09684
2021-09-26 16:29:01+00:00,322.5347,14.3,13.29,47.84626,-54.09684
2021-09-26 16:39:01+00:00,323.353,14.3,13.29,47.84626,-54.09684
2021-09-26 16:49:01+00:00,316.3446,14.3,13.29,47.84626,-54.09684
2021-09-26 16:59:01+00:00,309.8247,14.3,13.29,47.84626,-54.09684
2021-09-26 17:09:01+00:00,309.6829,14.3,13.29,47.84626,-54.09684
2021-09-26 17:19:01+00:00,304.8781,14.3,13.29,47.84626,-54.09684
2021-09-26 17:29:01+00:00,295.7014,14.3,13.29,47.84626,-54.09684
2021-09-26 17:39:01+00:00,294.0897,14.3,13.29,47.84626,-54.09684
2021-09-26 17:49:01+00:00,292.283,14.3,13.29,47.84626,-54.09684
2021-09-26 17:59:01+00:00,281.0264,14.3,13.29,47.84626,-54.09684
2021-09-26 18:09:01+00:00,271.4131,14.3,13.29,47.84626,-54.09684
2021-09-26 18:19:01+00:00,270.2881,14.3,13.37,47.84626,-54.09684
2021-09-26 18:29:01+00:00,266.1847,14.3,13.37,47.84626,-54.09684
2021-09-26 18:39:01+00:00,253.0498,14.3,13.37,47.84626,-54.09684
2021-09-26 18:49:01+00:00,245.3264,14.3,13.37,47.84626,-54.09684
2021-09-26 18:59:01+00:00,242.9648,14.3,13.37,47.84626,-54.09684
2021-09-26 19:09:01+00:00,234.5197,14.3,13.37,47.84626,-54.09684
2021-09-26 19:19:01+00:00,223.8547,14.3,13.68,47.84626,-54.09684
2021-09-26 19:29:01+00:00,220.6048,14.31,13.68,47.84626,-54.09684
2021-09-26 19:39:01+00:00,216.7564,14.33,13.68,47.84626,-54.09684
2021-09-26 19:49:01+00:00,208.7414,14.34,13.68,47.84626,-54.09684
2021-09-26 19:59:01+00:00,203.1514,14.36,13.68,47.84626,-54.09684
2021-09-26 20:09:01+00:00,204.3664,14.38,13.68,47.84626,-54.09684
2021-09-26 20:19:01+00:00,202.4048,14.39,13.6,47.84626,-54.09684
2021-09-26 20:29:01+00:00,198.3698,14.39,13.6,47.84626,-54.09684
2021-09-26 20:39:01+00:00,199.4615,14.39,13.6,47.84626,-54.09684
2021-09-26 20:49:01+00:00,202.8448,14.4,13.6,47.84626,-54.09684
2021-09-26 20:59:01+00:00,202.5065,14.4,13.6,47.84626,-54.09684
2021-09-26 21:09:01+00:00,204.6298,14.4,13.6,47.84626,-54.09684
2021-09-26 21:19:01+00:00,209.6081,14.4,13.21,47.84626,-54.09684
2021-09-26 21:29:01+00:00,214.2715,14.4,13.21,47.84626,-54.09684
2021-09-26 21:39:01+00:00,219.9464,14.4,13.21,47.84626,-54.09684
2021-09-26 21:49:01+00:00,223.5448,14.4,13.21,47.84626,-54.09684
2021-09-26 21:59:01+00:00,226.8514,14.4,13.21,47.84626,-54.09684
2021-09-26 22:09:01+00:00,234.223,14.4,13.21,47.84626,-54.09684
2021-09-26 22:19:01+00:00,240.9615,14.4,12.89,47.84626,-54.09684
2021-09-26 22:29:01+00:00,243.1148,14.4,12.89,47.84626,-54.09684
2021-09-26 22:39:01+00:00,247.0298,14.39,12.89,47.84626,-54.09684
2021-09-26 22:49:01+00:00,252.9081,14.39,12.89,47.84626,-54.09684
2021-09-26 22:59:01+00:00,255.2281,14.39,12.89,47.84626,-54.09684
2021-09-26 23:09:01+00:00,254.2248,14.38,12.89,47.84626,-54.09684
2021-09-26 23:19:01+00:00,256.7264,14.38,12.73,47.84626,-54.09684
2021-09-26 23:29:01+00:00,259.9514,14.38,12.73,47.84626,-54.09684
2021-09-26 23:39:01+00:00,263.0181,14.38,12.73,47.84626,-54.09684
2021-09-26 23:49:01+00:00,264.3014,14.38,12.73,47.84626,-54.09684
2021-09-26 23:59:01+00:00,268.8014,14.38,12.73,47.84626,-54.09684
